When you browse on this site, cookies collect data to enhance your experience and personalize the content and advertising you see.
Visit our Privacy Policy to learn more. By continuing to use the site, you agree to this use of cookies and data.
  • In Switzerland
  • List of Countries
  • For 7 days
  • Water Temperature
  • Weather Map
  • Weather Widgets
  • user-avatar
    Login

    Hourly Weather Xiyan

    Today, 3 June, Wednesday

    Time Temperature Precipitation Wind Pressure Humidity
    00:00 +25°C° 1.2 mm 1 mps 721 mmHg 97%
    01:00 +25°C° 1.2 mm 2 mps 720 mmHg 97%
    02:00 +24°C° 1.8 mm 1 mps 720 mmHg 97%
    03:00 +24°C° 1.8 mm 1 mps 720 mmHg 97%
    04:00 +24°C° 1.8 mm 1 mps 720 mmHg 97%
    05:00 +24°C° 1.2 mm 1 mps 721 mmHg 97%
    06:00 +24°C° 1.2 mm 1 mps 721 mmHg 96%
    07:00 +24°C° 1.2 mm 1 mps 721 mmHg 96%
    08:00 +25°C° 0.6 mm 1 mps 722 mmHg 94%
    09:00 +26°C° 0.6 mm 1 mps 722 mmHg 92%
    10:00 +27°C° 0.6 mm 1 mps 722 mmHg 90%
    11:00 +27°C° 0.9 mm 1 mps 722 mmHg 88%
    12:00 +28°C° 0.9 mm 1 mps 722 mmHg 87%
    13:00 +29°C° 0.9 mm 1 mps 721 mmHg 85%
    14:00 +28°C° 1.2 mm 1 mps 721 mmHg 87%
    15:00 +28°C° 1.2 mm 1 mps 720 mmHg 89%
    16:00 +28°C° 1.2 mm 1 mps 720 mmHg 90%
    17:00 +27°C° 0.7 mm 1 mps 720 mmHg 92%
    18:00 +26°C° 0.7 mm 1 mps 720 mmHg 94%
    19:00 +25°C° 0.7 mm 1 mps 720 mmHg 96%
    20:00 +25°C° 0.3 mm 1 mps 721 mmHg 96%
    21:00 +24°C° 0.3 mm 1 mps 721 mmHg 96%
    22:00 +24°C° 0.3 mm 1 mps 721 mmHg 96%
    23:00 +24°C° 0.3 mm 1 mps 721 mmHg 96%

    Tomorrow, 4 June, Thursday

    Time Temperature Precipitation Wind Pressure Humidity
    00:00 +24°C° 0.3 mm 1 mps 721 mmHg 97%
    01:00 +24°C° 0.3 mm 1 mps 720 mmHg 97%
    02:00 +24°C° 0.3 mm 1 mps 720 mmHg 97%
    03:00 +24°C° 0.3 mm 1 mps 720 mmHg 97%
    04:00 +24°C° 0.3 mm 1 mps 720 mmHg 97%
    05:00 +25°C° 0.3 mm 1 mps 720 mmHg 96%
    06:00 +26°C° 0.3 mm 1 mps 721 mmHg 95%
    07:00 +27°C° 0.3 mm 1 mps 721 mmHg 93%
    08:00 +28°C° 1.3 mm 1 mps 721 mmHg 90%
    09:00 +29°C° 1.3 mm 1 mps 721 mmHg 86%
    10:00 +30°C° 1.3 mm 2 mps 721 mmHg 82%
    11:00 +30°C° 2.8 mm 1 mps 720 mmHg 82%
    12:00 +31°C° 2.8 mm 1 mps 720 mmHg 82%
    13:00 +31°C° 2.8 mm 1 mps 719 mmHg 82%
    14:00 +30°C° 3.1 mm 1 mps 719 mmHg 86%
    15:00 +29°C° 3.1 mm 1 mps 718 mmHg 89%
    16:00 +28°C° 3.1 mm 1 mps 718 mmHg 93%
    17:00 +27°C° 1.9 mm 1 mps 718 mmHg 94%
    18:00 +26°C° 1.9 mm 1 mps 719 mmHg 95%
    19:00 +26°C° 1.9 mm 1 mps 719 mmHg 96%
    20:00 +24°C° 4.5 mm 0 mps 719 mmHg 97%
    21:00 +23°C° 4.5 mm 0 mps 720 mmHg 98%
    22:00 +23°C° 4.5 mm 0 mps 720 mmHg 99%
    23:00 +23°C° 2.2 mm 0 mps 720 mmHg 99%

    Day after tomorrow, 5 June, Friday

    Time Temperature Precipitation Wind Pressure Humidity
    00:00 +23°C° 2.2 mm 0 mps 720 mmHg 99%
    01:00 +23°C° 2.2 mm 0 mps 719 mmHg 99%
    02:00 +23°C° 2.5 mm 0 mps 719 mmHg 99%
    03:00 +23°C° 2.5 mm 0 mps 719 mmHg 99%
    04:00 +23°C° 2.5 mm 0 mps 719 mmHg 99%
    05:00 +23°C° 4 mm 0 mps 719 mmHg 98%
    06:00 +23°C° 4 mm 0 mps 719 mmHg 98%
    07:00 +23°C° 4 mm 0 mps 719 mmHg 98%
    08:00 +24°C° 1 mm 0 mps 720 mmHg 96%
    09:00 +25°C° 1 mm 0 mps 720 mmHg 93%
    10:00 +26°C° 1 mm 0 mps 720 mmHg 90%
    11:00 +29°C° 1.2 mm 1 mps 720 mmHg 87%
    12:00 +29°C° 1.2 mm 1 mps 720 mmHg 85%
    13:00 +30°C° 1.2 mm 1 mps 719 mmHg 82%
    14:00 +30°C° 2.5 mm 1 mps 719 mmHg 83%
    15:00 +30°C° 2.5 mm 1 mps 718 mmHg 85%
    16:00 +27°C° 2.5 mm 0 mps 718 mmHg 87%
    17:00 +26°C° 1 mm 0 mps 718 mmHg 89%
    18:00 +25°C° 1 mm 0 mps 718 mmHg 91%
    19:00 +24°C° 1 mm 0 mps 719 mmHg 93%
    20:00 +23°C° 0 mm 0 mps 719 mmHg 94%
    21:00 +23°C° 0 mm 0 mps 719 mmHg 94%
    22:00 +23°C° 0 mm 0 mps 719 mmHg 95%
    23:00 +23°C° 0.2 mm 0 mps 719 mmHg 95%

    6 June, Saturday

    Time Temperature Precipitation Wind Pressure Humidity
    00:00 +22°C° 0.2 mm 0 mps 719 mmHg 96%
    01:00 +22°C° 0.2 mm 0 mps 719 mmHg 96%
    02:00 +22°C° 0.2 mm 0 mps 719 mmHg 96%
    03:00 +22°C° 0.2 mm 0 mps 719 mmHg 96%
    04:00 +22°C° 0.2 mm 0 mps 719 mmHg 96%
    05:00 +23°C° 0 mm 0 mps 719 mmHg 94%
    06:00 +24°C° 0 mm 0 mps 719 mmHg 93%
    07:00 +25°C° 0 mm 0 mps 720 mmHg 91%
    08:00 +26°C° 1.3 mm 0 mps 720 mmHg 89%
    09:00 +27°C° 1.3 mm 0 mps 720 mmHg 88%
    10:00 +28°C° 1.3 mm 0 mps 720 mmHg 86%
    11:00 +30°C° 2.6 mm 1 mps 720 mmHg 85%
    12:00 +30°C° 2.6 mm 1 mps 719 mmHg 85%
    13:00 +31°C° 2.6 mm 1 mps 719 mmHg 84%
    14:00 +30°C° 2.8 mm 1 mps 719 mmHg 85%
    15:00 +30°C° 2.8 mm 1 mps 718 mmHg 85%
    16:00 +28°C° 2.8 mm 0 mps 718 mmHg 85%
    17:00 +27°C° 2.6 mm 0 mps 718 mmHg 87%
    18:00 +26°C° 2.6 mm 0 mps 718 mmHg 89%
    19:00 +25°C° 2.6 mm 0 mps 718 mmHg 91%
    20:00 +24°C° 3 mm 0 mps 719 mmHg 92%
    21:00 +26°C° 3 mm 1 mps 719 mmHg 94%
    22:00 +25°C° 3 mm 1 mps 720 mmHg 95%
    23:00 +25°C° 1.5 mm 1 mps 720 mmHg 95%

    7 June, Sunday

    Time Temperature Precipitation Wind Pressure Humidity
    00:00 +25°C° 1.5 mm 1 mps 719 mmHg 96%
    01:00 +25°C° 1.5 mm 1 mps 719 mmHg 96%
    02:00 +25°C° 0.8 mm 1 mps 719 mmHg 96%
    03:00 +25°C° 0.8 mm 1 mps 719 mmHg 96%
    04:00 +23°C° 0.8 mm 0 mps 719 mmHg 97%
    05:00 +23°C° 0.6 mm 0 mps 719 mmHg 96%
    06:00 +24°C° 0.6 mm 0 mps 720 mmHg 95%
    07:00 +25°C° 0.6 mm 0 mps 720 mmHg 94%
    08:00 +26°C° 1.2 mm 0 mps 720 mmHg 90%
    09:00 +27°C° 1.2 mm 0 mps 720 mmHg 86%
    10:00 +29°C° 1.2 mm 0 mps 720 mmHg 82%
    11:00 +29°C° 2.4 mm 0 mps 719 mmHg 82%
    12:00 +30°C° 2.4 mm 0 mps 719 mmHg 82%
    13:00 +30°C° 2.4 mm 0 mps 718 mmHg 82%
    14:00 +30°C° 2.2 mm 0 mps 718 mmHg 82%
    15:00 +30°C° 2.2 mm 0 mps 717 mmHg 81%
    16:00 +29°C° 2.2 mm 0 mps 717 mmHg 81%
    17:00 +28°C° 2.6 mm 0 mps 717 mmHg 84%
    18:00 +26°C° 2.6 mm 0 mps 717 mmHg 88%
    19:00 +25°C° 2.6 mm 0 mps 717 mmHg 91%
    20:00 +25°C° 0.6 mm 0 mps 718 mmHg 91%
    21:00 +24°C° 0.6 mm 0 mps 718 mmHg 92%
    22:00 +26°C° 0.6 mm 1 mps 719 mmHg 92%
    23:00 +26°C° 1.1 mm 1 mps 718 mmHg 93%

    8 June, Monday

    Time Temperature Precipitation Wind Pressure Humidity
    00:00 +25°C° 1.1 mm 1 mps 718 mmHg 94%
    01:00 +25°C° 1.1 mm 1 mps 718 mmHg 95%
    02:00 +25°C° 0.1 mm 1 mps 718 mmHg 96%
    03:00 +25°C° 0.1 mm 1 mps 718 mmHg 96%
    04:00 +25°C° 0.1 mm 1 mps 718 mmHg 96%
    05:00 +26°C° 0.1 mm 1 mps 718 mmHg 95%
    06:00 +24°C° 0.1 mm 0 mps 719 mmHg 94%
    07:00 +25°C° 0.1 mm 0 mps 719 mmHg 93%
    08:00 +28°C° 2.2 mm 1 mps 719 mmHg 92%
    09:00 +29°C° 2.2 mm 1 mps 720 mmHg 90%
    10:00 +29°C° 2.2 mm 1 mps 720 mmHg 89%
    11:00 +30°C° 2.5 mm 1 mps 719 mmHg 85%
    12:00 +31°C° 2.5 mm 1 mps 719 mmHg 82%
    13:00 +30°C° 2.5 mm 0 mps 719 mmHg 79%
    14:00 +31°C° 2.5 mm 1 mps 718 mmHg 82%
    15:00 +31°C° 2.5 mm 1 mps 718 mmHg 85%
    16:00 +30°C° 2.5 mm 1 mps 718 mmHg 88%
    17:00 +29°C° 1 mm 1 mps 718 mmHg 90%
    18:00 +28°C° 1 mm 1 mps 718 mmHg 92%
    19:00 +26°C° 1 mm 1 mps 718 mmHg 94%
    20:00 +26°C° 0.2 mm 1 mps 719 mmHg 95%
    21:00 +26°C° 0.2 mm 1 mps 719 mmHg 95%
    22:00 +25°C° 0.2 mm 1 mps 720 mmHg 96%
    23:00 +25°C° 0.1 mm 1 mps 720 mmHg 96%
    Show more